This is the latest recevied weather packets stored in our database for station/object WB5CFT. If no packets are shown the sender has not sent any weather packets the latest 10 day(s).
| Time | Temp. | Humidity | Pressure | Rain* | Wind** | Luminosity | Snow |
|---|---|---|---|---|---|---|---|
| 1777773377 | 17.78° C | 49% | 1022.4 hPa | 0 mm | - | 0 W/m² | - |
| 1777773074 | 17.78° C | 48% | 1022.3 hPa | 0 mm | - | 1 W/m² | - |
| 1777772770 | 17.78° C | 49% | 1022.1 hPa | 0 mm | - | 1 W/m² | - |
| 1777772468 | 17.78° C | 48% | 1022 hPa | 0 mm | - | 3 W/m² | - |
| 1777772165 | 17.78° C | 46% | 1021.9 hPa | 0 mm | - | 4 W/m² | - |
| 1777771863 | 17.78° C | 47% | 1021.9 hPa | 0 mm | - | 6 W/m² | - |
| 1777771560 | 18.33° C | 46% | 1022 hPa | 0 mm | - | 9 W/m² | - |
| 1777771256 | 18.33° C | 46% | 1021.8 hPa | 0 mm | - | 11 W/m² | - |
| 1777770952 | 18.33° C | 46% | 1021.9 hPa | 0 mm | - | 14 W/m² | - |
| 1777770650 | 18.33° C | 46% | 1022 hPa | 0 mm | - | 17 W/m² | - |
| 1777770346 | 18.89° C | 45% | 1021.8 hPa | 0 mm | - | 21 W/m² | - |
| 1777770044 | 18.89° C | 44% | 1021.8 hPa | 0 mm | - | 34 W/m² | - |
| 1777769741 | 18.89° C | 44% | 1021.7 hPa | 0 mm | - | 41 W/m² | - |
| 1777769438 | 18.89° C | 44% | 1021.8 hPa | 0 mm | - | 48 W/m² | - |
| 1777769134 | 18.89° C | 45% | 1021.9 hPa | 0 mm | - | 56 W/m² | - |
| 1777768832 | 18.89° C | 44% | 1021.9 hPa | 0 mm | - | 64 W/m² | - |
| 1777768528 | 18.89° C | 44% | 1022 hPa | 0 mm | - | 73 W/m² | - |
| 1777768226 | 18.89° C | 44% | 1021.9 hPa | 0 mm | - | 85 W/m² | - |
| 1777767923 | 18.89° C | 43% | 1021.9 hPa | 0 mm | - | 91 W/m² | - |
| 1777767620 | 18.89° C | 44% | 1022 hPa | 0 mm | - | 99 W/m² | - |
| 1777767316 | 18.89° C | 44% | 1022 hPa | 0 mm | - | 111 W/m² | - |
| 1777767014 | 18.89° C | 43% | 1022 hPa | 0 mm | - | 122 W/m² | - |
| 1777766711 | 18.89° C | 43% | 1022 hPa | 0 mm | - | 131 W/m² | - |
| 1777766408 | 18.89° C | 43% | 1022 hPa | 0 mm | - | 140 W/m² | - |
| 1777766104 | 18.89° C | 44% | 1022 hPa | 0 mm | - | 155 W/m² | - |
* Rain latest hour (hover to see other rain measurements)
** Current wind speed in m/s (hover to see current wind gust speed)